DW9837 Weather Reports


time (UTC)temp
F
wind
direction
speed
knots
gust
knots
rain 1hr
in
rain 24hr
in
rain mn
in
humidity
%
barometer
mb
20260507023035 55 272 0.0 0.9 0.00 0.27 0.27 95 1007.4
20260507021534 55 273 0.0 1.7 0.00 0.27 0.27 94 1007.7
20260507020035 55 251 0.0 3.5 0.00 0.27 0.27 94 1008.0
20260507014533 55 270 0.0 3.5 0.00 0.27 0.27 94 1008.0
20260507013037 55 172 0.0 2.6 0.00 0.27 0.27 94 1007.7
20260507011538 55 152 0.0 1.7 0.00 0.27 0.27 94 1007.7
20260507010031 55 209 0.0 0.9 0.00 0.27 0.27 94 1007.9
20260507004530 55 187 0.0 1.7 0.00 0.27 0.27 94 1008.1
20260507003029 55 302 0.0 1.7 0.00 0.27 0.27 93 1008.2
20260507001531 55 277 0.0 1.7 0.00 0.27 0.27 93 1008.2
20260507000028 55 274 0.0 2.6 0.00 0.27 0.27 93 1007.9
20260506234538 55 295 0.9 4.3 0.00 0.27 0.27 93 1007.8
20260506233029 55 313 0.9 3.5 0.00 0.27 0.27 93 1007.8
20260506231531 55 284 1.7 4.3 0.00 0.27 0.27 93 1007.9
20260506230025 55 163 0.9 6.1 0.00 0.27 0.27 93 1007.8
20260506224529 56 337 1.7 7.8 0.01 0.27 0.27 94 1007.8
20260506223024 56 296 1.7 7.0 0.02 0.27 0.27 94 1007.6
20260506221523 56 132 0.9 6.1 0.04 0.27 0.27 94 1007.6
20260506220022 56 307 1.7 6.1 0.09 0.27 0.27 94 1007.6
20260506214522 56 13 1.7 5.2 0.15 0.26 0.26 94 1007.6
20260506213022 56 236 2.6 7.8 0.16 0.25 0.25 93 1007.6
20260506211519 56 299 0.9 8.7 0.15 0.22 0.22 92 1007.9
20260506210020 56 246 0.0 2.6 0.10 0.17 0.17 92 1008.1
20260506204516 56 272 0.9 3.5 0.05 0.11 0.11 91 1008.4
20260506203014 56 176 0.9 3.5 0.03 0.09 0.09 91 1008.2
20260506201519 56 193 1.7 7.8 0.01 0.07 0.07 91 1008.3
20260506200012 56 177 0.9 5.2 0.02 0.07 0.07 90 1008.2
20260506194511 56 175 2.6 6.1 0.04 0.06 0.06 90 1008.4
20260506193007 56 154 0.0 3.5 0.06 0.06 0.06 91 1008.7
20260506191507 56 238 1.7 6.1 0.06 0.06 0.06 89 1008.9
20260506190005 57 213 1.7 6.1 0.05 0.05 0.05 89 1008.8
20260506184502 58 173 3.5 9.6 0.02 0.02 0.02 88 1009.1
20260506183111 58 182 1.7 9.6 0.00 0.00 0.00 85 1009.2
20260506181601 59 321 1.7 6.1 0.00 0.00 0.00 82 1009.5
20260506180057 60 200 1.7 7.0 0.00 0.00 0.00 80 1009.9
20260506174608 60 317 0.9 5.2 0.00 0.00 0.00 79 1010.0
20260506173057 61 273 0.0 4.3 0.00 0.00 0.00 77 1010.2
20260506171602 61 248 0.9 3.5 0.00 0.00 0.00 78 1010.1
20260506170052 61 191 2.6 7.8 0.00 0.00 0.00 77 1010.5
20260506164557 62 165 0.9 6.1 0.00 0.00 0.00 75 1010.5
20260506163104 62 193 2.6 8.7 0.00 0.00 0.00 75 1010.5
20260506161549 63 270 0.9 7.8 0.00 0.00 0.00 75 1010.9
20260506160051 62 166 2.6 13.0 0.00 0.00 0.00 76 1011.1
20260506154552 63 264 5.2 16.5 0.00 0.00 0.00 75 1011.3
20260506153050 63 189 4.3 12.2 0.00 0.00 0.00 75 1011.3
20260506151547 64 329 2.6 12.2 0.00 0.00 0.00 73 1011.2
20260506150045 64 205 3.5 11.3 0.00 0.00 0.00 73 1011.2
20260506144545 63 169 5.2 14.8 0.00 0.00 0.00 74 1011.2
20260506143042 62 285 2.6 11.3 0.00 0.00 0.00 77 1011.5
20260506141541 62 208 1.7 11.3 0.00 0.00 0.00 76 1011.3
20260506140041 62 34 4.3 13.9 0.00 0.00 0.00 76 1011.2
20260506134540 61 315 2.6 10.4 0.00 0.00 0.00 77 1011.1
20260506133041 63 239 0.9 10.4 0.00 0.00 0.00 76 1010.9
20260506131538 62 248 2.6 8.7 0.00 0.00 0.00 77 1011.2
20260506130038 62 197 5.2 13.0 0.00 0.00 0.00 77 1011.5
20260506124532 61 271 1.7 10.4 0.00 0.00 0.00 78 1011.5
20260506123031 61 256 1.7 9.6 0.00 0.00 0.00 79 1011.5
20260506121530 60 201 2.6 8.7 0.00 0.00 0.00 80 1011.6
20260506120028 60 226 2.6 9.6 0.00 0.00 0.00 81 1011.4
20260506114525 59 183 2.6 10.4 0.00 0.00 0.00 82 1011.5
20260506113025 59 171 2.6 9.6 0.00 0.00 0.00 82 1011.5
20260506111528 58 251 1.7 7.8 0.00 0.00 0.00 83 1011.5
20260506110022 58 274 1.7 8.7 0.00 0.00 0.00 85 1011.7
20260506104522 57 163 0.9 8.7 0.00 0.00 0.00 86 1011.4
20260506103020 57 267 2.6 8.7 0.00 0.00 0.00 86 1011.5
20260506101519 57 208 2.6 5.2 0.00 0.00 0.00 86 1011.5
20260506100017 57 199 2.6 7.8 0.00 0.00 0.00 86 1011.3
20260506094517 57 297 2.6 7.8 0.00 0.00 0.00 87 1011.2
20260506093014 57 265 1.7 6.1 0.00 0.00 0.00 87 1011.3
20260506091514 57 251 1.7 7.8 0.00 0.00 0.00 87 1011.3
20260506090011 57 205 1.7 7.0 0.00 0.00 0.00 86 1011.4
20260506084510 57 176 1.7 9.6 0.00 0.00 0.00 86 1011.5
20260506083015 57 255 1.7 4.3 0.00 0.00 0.00 85 1011.5
20260506081508 57 196 0.9 8.7 0.00 0.00 0.00 85 1011.5
20260506073005 57 227 0.9 7.0 0.00 0.00 0.00 84 1011.8
20260506071503 57 252 0.9 7.0 0.00 0.00 0.00 84 1011.7
20260506061554 57 197 2.6 7.8 0.00 0.00 0.00 84 1012.1
20260506050103 58 283 1.7 7.0 0.00 0.00 0.00 81 1012.5
20260506044545 58 254 0.9 6.1 0.00 0.00 0.00 80 1012.6
20260506043040 58 252 0.9 5.2 0.00 0.00 0.00 79 1012.6
20260506041552 59 339 1.7 7.0 0.00 0.00 0.00 79 1012.6
20260506040035 59 234 2.6 13.0 0.00 0.00 0.00 78 1012.5
20260506034548 59 293 1.7 10.4 0.00 0.00 0.00 78 1012.7
20260506033033 58 266 2.6 7.0 0.00 0.00 0.00 78 1012.5
20260506031533 58 194 0.9 5.2 0.00 0.00 0.00 77 1012.3
20260506030036 59 249 1.7 5.2 0.00 0.00 0.00 76 1012.3
20260506024533 59 319 0.9 6.1 0.00 0.00 0.00 76 1012.4